Location: Campillo
(40.8621°N, 4.2488°W)
Time: 07:21:49
(UTC+00:00)

Cosmos 2181 Rocket - Visible Passes

Search period start: 28 September 2021 00:00
Search period end: 08 October 2021 00:00
Orbit: 951 x 1015 km, 82.9° (Epoch: 27 September)

Date Brightness Start Highest point End Pass type
(mag) Time Alt. Az. Time Alt. Az. Time Alt. Az.
28 Sep 7.2 05:32:14 10° ESE 05:35:11 14° E 05:38:09 10° NE visible
28 Sep 7.1 19:58:50 10° NW 20:01:39 13° W 20:04:31 10° WSW visible
29 Sep 5.0 18:38:38 10° NNW 18:44:40 52° W 18:50:44 10° SSW visible
30 Sep 6.3 19:07:00 10° NNW 19:12:08 27° W 19:17:18 10° SW visible
01 Oct 7.3 05:10:08 10° ESE 05:12:55 13° E 05:15:42 10° NE visible
01 Oct 7.2 19:36:21 10° NW 19:39:23 14° W 19:42:27 10° WSW visible
02 Oct 6.5 05:35:12 10° SE 05:40:10 27° E 05:45:08 10° NNE visible
02 Oct 5.0 18:16:18 10° NNW 18:22:23 53° W 18:28:30 10° SSW visible
03 Oct 6.3 18:44:38 10° NNW 18:49:51 28° W 18:55:07 10° SW visible
04 Oct 7.3 04:48:03 10° ESE 04:50:38 13° E 04:53:14 10° NE visible
04 Oct 7.2 19:13:54 10° NW 19:17:09 15° W 19:20:23 10° WSW visible
05 Oct 6.4 05:12:59 10° SE 05:17:53 26° E 05:22:48 10° NNE visible
06 Oct 5.1 05:39:29 10° SSE 05:45:19 49° E 05:51:12 10° NNE visible
06 Oct 6.3 18:22:18 10° NNW 18:27:36 29° W 18:32:57 10° SW visible
07 Oct 7.2 04:25:59 10° ESE 04:28:22 12° E 04:30:46 10° NE visible
07 Oct 7.1 18:51:28 10° NW 18:54:53 15° W 18:58:19 10° WSW visible
